GAP2685 RPLC-RPVV

Flight info

Callsign GAP2685
Flight time 0h 40m
Altitude 20000
Route REPAT5P REPAT DCT BUCAL M646 OLRAX
Aircraft DH8D/M-SDE2E3FGRY/H

Departure

Time 2026-04-26 09:03
Airport Clark International Airport / Clark Air Base (RPLC)

Arrival

Time 2026-04-26 09:44
Airport Francisco B. Reyes (Busuanga) Airport (RPVV)
Time Latitude Longitude Altitude Speed Heading
2026-04-26 08:47 15.19385 120.55947 474 ft 0 kts 291°
2026-04-26 08:56 15.19375 120.55975 473 ft 3 kts 288°
2026-04-26 08:57 15.19370 120.55990 473 ft 3 kts 285°
2026-04-26 08:57 15.19370 120.55992 473 ft 0 kts 286°
2026-04-26 08:58 15.19374 120.55990 473 ft 1 kts 342°
2026-04-26 08:58 15.19384 120.56001 473 ft 3 kts 72°
2026-04-26 08:58 15.19424 120.56053 473 ft 8 kts 23°
2026-04-26 08:59 15.19457 120.56068 473 ft 7 kts 29°
2026-04-26 08:59 15.19463 120.56132 473 ft 8 kts 110°
2026-04-26 08:59 15.19447 120.56175 473 ft 10 kts 111°
2026-04-26 08:59 15.19426 120.56242 473 ft 9 kts 94°
2026-04-26 09:00 15.19458 120.56285 473 ft 8 kts 23°
2026-04-26 09:00 15.19522 120.56310 473 ft 10 kts 21°
2026-04-26 09:00 15.19596 120.56341 473 ft 12 kts 22°
2026-04-26 09:00 15.19684 120.56377 473 ft 8 kts 37°
2026-04-26 09:01 15.19687 120.56428 473 ft 8 kts 112°
2026-04-26 09:01 15.19664 120.56491 473 ft 10 kts 111°
2026-04-26 09:01 15.19645 120.56542 473 ft 12 kts 111°
2026-04-26 09:01 15.19612 120.56632 473 ft 5 kts 111°
2026-04-26 09:02 15.19605 120.56642 473 ft 1 kts 162°
2026-04-26 09:02 15.19556 120.56624 473 ft 24 kts 201°
2026-04-26 09:02 15.19119 120.56451 473 ft 111 kts 201°
2026-04-26 09:02 15.18527 120.56217 474 ft 153 kts 200°
2026-04-26 09:03 15.17117 120.55640 951 ft 173 kts 200°
2026-04-26 09:03 15.16339 120.55331 1322 ft 181 kts 200°
2026-04-26 09:03 15.14748 120.54701 2152 ft 189 kts 199°
2026-04-26 09:03 15.13509 120.54215 2666 ft 196 kts 199°
2026-04-26 09:04 15.12639 120.53874 2962 ft 202 kts 199°
2026-04-26 09:04 15.11283 120.53543 3431 ft 201 kts 173°
2026-04-26 09:04 15.09972 120.54029 3874 ft 200 kts 149°
2026-04-26 09:04 15.08760 120.54730 4400 ft 201 kts 148°
2026-04-26 09:05 15.07539 120.55440 4909 ft 202 kts 148°
2026-04-26 09:05 15.06317 120.56156 5413 ft 203 kts 148°
2026-04-26 09:05 15.04681 120.57117 6060 ft 204 kts 148°
2026-04-26 09:05 15.03849 120.57606 6357 ft 206 kts 149°
2026-04-26 09:06 15.02182 120.58590 6968 ft 208 kts 148°
2026-04-26 09:06 15.00921 120.59335 7420 ft 209 kts 149°
2026-04-26 09:06 15.00081 120.59830 7726 ft 210 kts 149°
2026-04-26 09:06 14.98746 120.60467 8138 ft 212 kts 160°
2026-04-26 09:07 14.96865 120.61088 8703 ft 213 kts 162°
2026-04-26 09:07 14.95459 120.61544 9112 ft 214 kts 162°
2026-04-26 09:07 14.94511 120.61853 9366 ft 216 kts 162°
2026-04-26 09:07 14.92582 120.62483 9893 ft 218 kts 162°
2026-04-26 09:08 14.91128 120.62960 10256 ft 219 kts 163°
2026-04-26 09:08 14.89652 120.63445 10623 ft 222 kts 163°
2026-04-26 09:08 14.88180 120.63930 10982 ft 224 kts 163°
2026-04-26 09:08 14.87176 120.64259 11199 ft 225 kts 163°
2026-04-26 09:09 14.85662 120.64758 11516 ft 227 kts 163°
2026-04-26 09:09 14.83647 120.65416 11916 ft 229 kts 166°
2026-04-26 09:09 14.82603 120.65582 12111 ft 229 kts 180°
2026-04-26 09:09 14.80454 120.65479 12543 ft 230 kts 185°
2026-04-26 09:10 14.78858 120.65372 12870 ft 232 kts 185°
2026-04-26 09:10 14.77770 120.65300 13076 ft 233 kts 185°
2026-04-26 09:10 14.75605 120.65161 13471 ft 234 kts 185°
2026-04-26 09:10 14.73982 120.65058 13740 ft 235 kts 185°
2026-04-26 09:11 14.72893 120.64990 13918 ft 235 kts 185°
2026-04-26 09:11 14.70696 120.64855 14294 ft 236 kts 185°
2026-04-26 09:11 14.69588 120.64787 14484 ft 237 kts 185°
2026-04-26 09:11 14.67388 120.64654 14828 ft 238 kts 185°
2026-04-26 09:12 14.65726 120.64553 15087 ft 238 kts 185°
2026-04-26 09:12 14.64087 120.64454 15334 ft 239 kts 185°
2026-04-26 09:12 14.62397 120.64352 15594 ft 240 kts 185°
2026-04-26 09:12 14.61303 120.64287 15755 ft 240 kts 185°
2026-04-26 09:13 14.59058 120.64153 16084 ft 242 kts 185°
2026-04-26 09:13 14.57931 120.64085 16239 ft 243 kts 185°
2026-04-26 09:13 14.56227 120.63982 16466 ft 245 kts 185°
2026-04-26 09:13 14.54531 120.63880 16906 ft 245 kts 185°
2026-04-26 09:14 14.52248 120.63741 17530 ft 246 kts 185°
2026-04-26 09:14 14.51098 120.63672 17828 ft 248 kts 186°
2026-04-26 09:14 14.48787 120.63532 18420 ft 250 kts 186°
2026-04-26 09:14 14.47623 120.63463 18708 ft 252 kts 186°
2026-04-26 09:15 14.45288 120.63322 19278 ft 255 kts 186°
2026-04-26 09:15 14.44084 120.63250 19573 ft 256 kts 186°
2026-04-26 09:15 14.41644 120.63103 19878 ft 273 kts 186°
2026-04-26 09:15 14.40339 120.63025 19927 ft 287 kts 186°
2026-04-26 09:16 14.37492 120.62854 19954 ft 326 kts 185°
2026-04-26 09:16 14.35954 120.62763 19952 ft 343 kts 185°
2026-04-26 09:16 14.33483 120.62619 19944 ft 364 kts 185°
2026-04-26 09:16 14.30920 120.62472 19935 ft 367 kts 185°
2026-04-26 09:17 14.28376 120.62328 19912 ft 365 kts 185°
2026-04-26 09:17 14.25831 120.62181 19910 ft 363 kts 185°
2026-04-26 09:17 14.22486 120.61987 19908 ft 362 kts 185°
2026-04-26 09:17 14.19934 120.61836 19908 ft 364 kts 185°
2026-04-26 09:18 14.18240 120.61736 19911 ft 365 kts 185°
2026-04-26 09:18 14.14850 120.61536 19912 ft 367 kts 185°
2026-04-26 09:18 14.12276 120.61384 19919 ft 369 kts 185°
2026-04-26 09:18 14.10584 120.61283 19921 ft 369 kts 185°
2026-04-26 09:19 14.07147 120.61079 19911 ft 370 kts 185°
2026-04-26 09:19 14.05405 120.60976 19912 ft 371 kts 185°
2026-04-26 09:19 14.01974 120.60772 19904 ft 371 kts 185°
2026-04-26 09:19 14.00219 120.60668 19909 ft 371 kts 185°
2026-04-26 09:20 13.96772 120.60463 19922 ft 371 kts 185°
2026-04-26 09:20 13.95045 120.60361 19912 ft 372 kts 185°
2026-04-26 09:20 13.91605 120.60156 19914 ft 372 kts 185°
2026-04-26 09:20 13.89878 120.60053 19919 ft 372 kts 185°
2026-04-26 09:21 13.87296 120.59900 19903 ft 373 kts 185°
2026-04-26 09:21 13.84678 120.59744 19907 ft 373 kts 184°
2026-04-26 09:21 13.82091 120.59591 19914 ft 373 kts 184°
2026-04-26 09:21 13.79485 120.59435 19905 ft 373 kts 185°
2026-04-26 09:22 13.76880 120.59280 19912 ft 373 kts 184°
2026-04-26 09:22 13.73426 120.59075 19908 ft 373 kts 184°
2026-04-26 09:22 13.71686 120.58972 19908 ft 372 kts 185°
2026-04-26 09:22 13.68253 120.58768 19912 ft 369 kts 184°
2026-04-26 09:23 13.66550 120.58668 19927 ft 367 kts 184°
2026-04-26 09:23 13.63128 120.58464 19916 ft 368 kts 184°
2026-04-26 09:23 13.61428 120.58358 19921 ft 368 kts 185°
2026-04-26 09:23 13.58164 120.57442 19978 ft 363 kts 205°
2026-04-26 09:24 13.56616 120.56702 19920 ft 365 kts 206°
2026-04-26 09:24 13.54333 120.55597 19941 ft 365 kts 206°
2026-04-26 09:24 13.51259 120.54105 19950 ft 366 kts 206°
2026-04-26 09:24 13.49715 120.53356 19963 ft 366 kts 206°
2026-04-26 09:25 13.46624 120.51862 19962 ft 366 kts 206°
2026-04-26 09:25 13.45091 120.51121 19959 ft 367 kts 206°
2026-04-26 09:25 13.42005 120.49632 19952 ft 367 kts 206°
2026-04-26 09:25 13.39682 120.48513 19944 ft 367 kts 206°
2026-04-26 09:26 13.38139 120.47770 19938 ft 367 kts 206°
2026-04-26 09:26 13.35834 120.46660 19928 ft 368 kts 206°
2026-04-26 09:26 13.32736 120.45170 19925 ft 368 kts 206°
2026-04-26 09:26 13.30347 120.44190 19914 ft 369 kts 199°
2026-04-26 09:27 13.28683 120.43658 19914 ft 369 kts 198°
2026-04-26 09:27 13.26230 120.42895 19915 ft 370 kts 198°
2026-04-26 09:27 13.23737 120.42120 19907 ft 371 kts 198°
2026-04-26 09:27 13.21274 120.41354 19897 ft 371 kts 198°
2026-04-26 09:28 13.18809 120.40585 19909 ft 371 kts 198°
2026-04-26 09:28 13.16310 120.39805 19906 ft 371 kts 198°
2026-04-26 09:28 13.13046 120.38784 19898 ft 369 kts 198°
2026-04-26 09:28 13.11378 120.38262 19895 ft 369 kts 198°
2026-04-26 09:29 13.08071 120.37227 19538 ft 376 kts 197°
2026-04-26 09:29 13.06397 120.36704 19242 ft 373 kts 197°
2026-04-26 09:29 13.03118 120.35679 18624 ft 372 kts 197°
2026-04-26 09:29 13.00608 120.34895 18146 ft 372 kts 197°
2026-04-26 09:30 12.98138 120.34122 17676 ft 373 kts 197°
2026-04-26 09:30 12.96484 120.33604 17350 ft 374 kts 197°
2026-04-26 09:30 12.93994 120.32825 16844 ft 373 kts 197°
2026-04-26 09:30 12.91495 120.32044 16367 ft 371 kts 197°
2026-04-26 09:31 12.89062 120.31282 15911 ft 368 kts 197°
2026-04-26 09:31 12.85796 120.30261 15266 ft 362 kts 197°
2026-04-26 09:31 12.84205 120.29763 14947 ft 360 kts 197°
2026-04-26 09:31 12.81808 120.29013 14480 ft 356 kts 197°
2026-04-26 09:32 12.78668 120.28031 13875 ft 352 kts 197°
2026-04-26 09:32 12.76351 120.27306 13419 ft 349 kts 197°
2026-04-26 09:32 12.74012 120.26574 12989 ft 345 kts 197°
2026-04-26 09:32 12.71731 120.25860 12601 ft 342 kts 197°
2026-04-26 09:33 12.70197 120.25380 12322 ft 341 kts 197°
2026-04-26 09:33 12.67184 120.24437 11740 ft 339 kts 196°
2026-04-26 09:33 12.65673 120.23965 11437 ft 335 kts 196°
2026-04-26 09:33 12.62802 120.23070 10864 ft 315 kts 195°
2026-04-26 09:34 12.61415 120.22636 10591 ft 306 kts 195°
2026-04-26 09:34 12.59409 120.22008 10213 ft 295 kts 195°
2026-04-26 09:34 12.57469 120.21399 9837 ft 286 kts 195°
2026-04-26 09:34 12.55593 120.20810 9473 ft 281 kts 195°
2026-04-26 09:35 12.53720 120.20223 9115 ft 279 kts 195°
2026-04-26 09:35 12.51866 120.19643 8754 ft 277 kts 195°
2026-04-26 09:35 12.50023 120.19067 8388 ft 275 kts 194°
2026-04-26 09:35 12.48195 120.18494 8040 ft 273 kts 194°
2026-04-26 09:36 12.46376 120.17926 7684 ft 272 kts 194°
2026-04-26 09:36 12.44569 120.17362 7327 ft 270 kts 194°
2026-04-26 09:36 12.42768 120.16800 6977 ft 269 kts 194°
2026-04-26 09:36 12.40392 120.16058 6508 ft 268 kts 194°
2026-04-26 09:37 12.38613 120.15503 6161 ft 267 kts 194°
2026-04-26 09:37 12.36814 120.14941 5809 ft 266 kts 194°
2026-04-26 09:37 12.35046 120.14390 5467 ft 265 kts 194°
2026-04-26 09:37 12.33879 120.14026 5242 ft 263 kts 194°
2026-04-26 09:38 12.32150 120.13488 4896 ft 255 kts 194°
2026-04-26 09:38 12.29937 120.12798 4463 ft 243 kts 194°
2026-04-26 09:38 12.28339 120.12299 4153 ft 234 kts 194°
2026-04-26 09:38 12.27320 120.11980 3955 ft 228 kts 195°
2026-04-26 09:39 12.25350 120.11364 3577 ft 219 kts 195°
2026-04-26 09:39 12.23887 120.10905 3293 ft 217 kts 194°
2026-04-26 09:39 12.22443 120.10454 3015 ft 218 kts 194°
2026-04-26 09:39 12.20984 120.09998 2734 ft 219 kts 194°
2026-04-26 09:40 12.19528 120.09543 2445 ft 217 kts 195°
2026-04-26 09:40 12.18262 120.08810 2155 ft 201 kts 223°
2026-04-26 09:40 12.17652 120.08119 2011 ft 187 kts 228°
2026-04-26 09:40 12.16861 120.07161 1824 ft 166 kts 228°
2026-04-26 09:41 12.15935 120.06043 1569 ft 146 kts 228°
2026-04-26 09:41 12.15287 120.05259 1385 ft 144 kts 227°
2026-04-26 09:41 12.14860 120.04745 1255 ft 143 kts 228°
2026-04-26 09:41 12.14164 120.04020 1080 ft 140 kts 208°
2026-04-26 09:42 12.12958 120.03995 954 ft 134 kts 142°
2026-04-26 09:42 12.12578 120.04472 864 ft 130 kts 110°
2026-04-26 09:42 12.12390 120.05356 807 ft 123 kts 98°
2026-04-26 09:42 12.12255 120.06214 769 ft 124 kts 97°
2026-04-26 09:43 12.12173 120.09891 172 ft 110 kts 85°
2026-04-26 09:44 12.12215 120.10341 170 ft 28 kts 84°
2026-04-26 09:44 12.12226 120.10486 170 ft 8 kts 96°
2026-04-26 09:44 12.12226 120.10523 170 ft 1 kts 43°
2026-04-26 09:44 12.12233 120.10522 170 ft 1 kts 319°
2026-04-26 09:45 12.12232 120.10501 170 ft 5 kts 261°
2026-04-26 09:45 12.12223 120.10428 170 ft 14 kts 265°
2026-04-26 09:45 12.12211 120.10297 170 ft 22 kts 264°
2026-04-26 09:45 12.12196 120.10139 171 ft 21 kts 265°
2026-04-26 09:46 12.12180 120.10026 171 ft 12 kts 237°
2026-04-26 09:46 12.12115 120.09971 171 ft 11 kts 218°
2026-04-26 09:46 12.12085 120.09920 171 ft 5 kts 264°
2026-04-26 09:46 12.12072 120.09899 171 ft 3 kts 192°
2026-04-26 09:47 12.12050 120.09901 171 ft 2 kts 174°
2026-04-26 09:47 12.12035 120.09902 171 ft 1 kts 174°
2026-04-26 09:47 12.12034 120.09902 171 ft 0 kts 174°